OE9FWV Weather Reports


time (UTC)temp
C
wind
direction
speed
KPH
gust
KPH
rain 1hr
cm
rain 24hr
cm
rain mn
cm
humidity
%
barometer
mb
20260507162330 13 124 8.0 8.0 0.00 0.13 0.00 81 1014.0
20260507161327 13 155 6.4 8.0 0.00 0.13 0.00 82 1014.0
20260507160323 13 162 4.8 9.7 0.00 0.13 0.00 81 1014.0
20260507155319 13 166 12.9 12.9 0.00 0.13 0.00 82 1014.0
20260507152306 14 193 8.0 9.7 0.00 0.13 0.00 79 1013.8
20260507151300 14 160 9.7 16.1 0.00 0.13 0.00 79 1013.8
20260507150254 14 170 9.7 9.7 0.00 0.13 0.00 82 1013.8
20260507145250 14 199 9.7 14.5 0.00 0.13 0.00 83 1013.8
20260507143251 15 197 11.3 12.9 0.00 0.13 0.00 78 1013.8
20260507142250 15 132 14.5 16.1 0.00 0.13 0.00 73 1013.8
20260507141240 15 241 9.7 16.1 0.00 0.13 0.00 71 1013.8
20260507140237 15 193 14.5 14.5 0.00 0.13 0.00 71 1013.7
20260507135236 15 245 14.5 16.1 0.00 0.13 0.00 70 1013.8
20260507134232 15 180 20.9 20.9 0.00 0.13 0.00 68 1013.8
20260507131221 16 189 6.4 9.7 0.00 0.13 0.00 73 1013.8
20260507130217 15 124 11.3 16.1 0.00 0.13 0.00 70 1013.8
20260507122159 15 170 17.7 17.7 0.00 0.13 0.00 76 1013.7
20260507121155 15 207 16.1 16.1 0.00 0.13 0.00 74 1013.7
20260507115145 15 214 16.1 16.1 0.00 0.13 0.00 68 1013.7
20260507114142 17 4 16.1 19.3 0.00 0.13 0.00 63 1013.7
20260507113137 18 343 14.5 14.5 0.00 0.13 0.00 62 1013.7
20260507112133 18 327 14.5 17.7 0.00 0.13 0.00 61 1013.7
20260507111132 19 353 11.3 11.3 0.00 0.13 0.00 60 1013.6
20260507110133 18 322 9.7 16.1 0.00 0.13 0.00 62 1013.7
20260507105131 18 324 19.3 19.3 0.00 0.13 0.00 61 1013.7
20260507103122 18 322 8.0 11.3 0.00 0.13 0.00 60 1013.9
20260507101111 17 25 8.0 11.3 0.00 0.13 0.00 60 1014.0
20260507100111 17 317 3.2 6.4 0.00 0.13 0.00 63 1014.0
20260507094100 17 297 0.0 3.2 0.00 0.13 0.00 65 1014.1
20260507093050 16 296 6.4 8.0 0.00 0.13 0.00 67 1014.2
20260507092050 16 293 3.2 8.0 0.00 0.13 0.00 69 1014.1
20260507085037 13 292 0.0 1.6 0.00 0.13 0.00 77 1014.1
20260507084029 13 292 0.0 3.2 0.00 0.13 0.00 76 1014.2
20260507083026 13 292 3.2 3.2 0.00 0.13 0.00 79 1014.1
20260507081012 12 292 0.0 0.0 0.00 0.13 0.00 84 1014.2
20260507080009 12 292 4.8 4.8 0.00 0.13 0.00 85 1014.2
20260507075009 11 291 0.0 3.2 0.00 0.13 0.00 86 1014.1
20260507074004 11 291 0.0 3.2 0.00 0.13 0.00 87 1014.1
20260507071953 11 292 0.0 0.0 0.00 0.13 0.00 88 1014.2
20260507070953 11 292 0.0 0.0 0.00 0.13 0.00 89 1014.1
20260507065950 10 292 0.0 0.0 0.00 0.13 0.00 90 1014.1
20260507064944 10 292 0.0 0.0 0.00 0.13 0.00 90 1013.9
20260507063937 10 292 0.0 0.0 0.00 0.13 0.00 90 1013.8
20260507061937 10 292 1.6 4.8 0.00 0.13 0.00 91 1013.7
20260507060931 10 298 0.0 4.8 0.00 0.13 0.00 92 1013.7
20260507055930 9 318 4.8 4.8 0.00 0.13 0.00 93 1013.6
20260507054927 9 319 0.0 0.0 0.00 0.13 0.00 93 1013.5
20260507052916 9 319 0.0 4.8 0.00 0.13 0.00 93 1013.4
20260507051915 9 319 0.0 0.0 0.00 0.13 0.00 93 1013.2
20260507044905 9 319 0.0 0.0 0.00 0.13 0.00 93 1013.0
20260507043905 9 319 0.0 0.0 0.00 0.13 0.00 93 1012.8
20260507041857 8 319 0.0 0.0 0.00 0.13 0.00 93 1012.7
20260507040852 8 319 0.0 0.0 0.00 0.13 0.00 93 1012.4
20260507034846 8 319 0.0 0.0 0.00 0.13 0.00 93 1012.4
20260507033840 9 319 0.0 0.0 0.00 0.13 0.00 93 1012.3
20260507033059 9 319 1.6 3.2 0.00 0.13 0.00 93 1012.3
20260507032834 9 319 1.6 3.2 0.00 0.13 0.00 93 1012.3
20260507031832 8 319 0.0 0.0 0.00 0.13 0.00 92 1012.2
20260507030825 9 319 0.0 0.0 0.00 0.13 0.00 92 1012.1
20260507025821 9 319 0.0 0.0 0.00 0.13 0.00 93 1012.2
20260507022812 9 319 3.2 6.4 0.00 0.13 0.00 92 1012.0
20260507021804 9 329 4.8 6.4 0.00 0.13 0.00 92 1011.9
20260507015757 9 353 0.0 0.0 0.00 0.13 0.00 92 1011.7
20260507014754 9 353 1.6 3.2 0.00 0.13 0.00 92 1011.5
20260507013751 10 353 0.0 0.0 0.00 0.13 0.00 92 1011.5
20260507012751 10 353 0.0 0.0 0.00 0.13 0.00 92 1011.5
20260507011744 10 353 1.6 3.2 0.00 0.13 0.00 92 1011.5
20260507005740 10 353 0.0 0.0 0.00 0.13 0.00 91 1011.3
20260507004736 10 353 1.6 4.8 0.00 0.13 0.00 91 1011.2
20260507003733 10 353 1.6 3.2 0.00 0.13 0.00 91 1011.3
20260507002726 10 352 0.0 1.6 0.00 0.13 0.00 91 1011.2
20260507001725 10 352 0.0 0.0 0.00 0.10 0.00 91 1011.2
20260507000719 10 352 0.0 1.6 0.00 0.10 0.00 91 1011.2
20260506235904 10 352 0.0 0.0 0.00 0.10 0.00 90 1011.3
20260506235710 10 352 0.0 0.0 0.00 0.10 0.00 90 1011.3
20260506234703 10 352 0.0 0.0 0.00 0.08 0.00 90 1011.3
20260506233703 10 352 0.0 0.0 0.10 0.08 0.00 89 1011.4
20260506232703 10 352 0.0 0.0 0.43 0.08 0.00 89 1011.3
20260506230655 10 352 0.0 1.6 0.00 0.00 0.00 88 1011.3
20260506225652 10 353 3.2 3.2 0.00 0.00 0.00 88 1011.2
20260506224652 10 29 3.2 3.2 0.00 0.00 0.00 88 1011.2
20260506214634 10 30 0.0 0.0 0.00 0.00 0.00 86 1010.9
20260506213630 10 30 0.0 0.0 0.00 0.00 0.00 86 1010.8
20260506212627 10 30 0.0 0.0 0.00 0.00 0.00 86 1010.9
20260506211624 10 30 0.0 0.0 0.00 0.00 0.00 86 1010.9
20260506210622 11 30 0.0 0.0 0.00 0.00 0.00 85 1010.9
20260506204616 11 30 0.0 0.0 0.00 0.00 0.00 85 1010.7
20260506203613 11 30 0.0 0.0 0.00 0.00 0.00 85 1010.7
20260506202608 11 30 0.0 0.0 0.00 0.00 0.00 85 1010.7
20260506195556 11 30 0.0 0.0 0.00 0.00 0.00 85 1010.4
20260506194556 11 30 0.0 0.0 0.00 0.00 0.00 84 1010.2
20260506191541 11 30 0.0 0.0 0.00 0.00 0.00 81 1009.8
20260506190541 11 30 0.0 0.0 0.00 0.00 0.00 81 1009.8
20260506185541 11 30 0.0 0.0 0.00 0.00 0.00 81 1009.4
20260506184541 11 30 0.0 0.0 0.00 0.00 0.00 81 1009.4
20260506183535 11 30 0.0 0.0 0.00 0.00 0.00 81 1009.1
20260506182526 11 30 0.0 0.0 0.00 0.00 0.00 80 1009.0
20260506181521 12 30 0.0 0.0 0.00 0.00 0.00 80 1009.1
20260506180518 12 30 0.0 0.0 0.00 0.00 0.00 80 1008.8
20260506175514 12 30 0.0 0.0 0.00 0.00 0.00 80 1008.7
20260506174506 12 30 0.0 1.6 0.00 0.00 0.00 80 1008.8
20260506173506 11 30 0.0 3.2 0.00 0.00 0.00 80 1008.6
20260506171500 12 10 8.0 11.3 0.00 0.00 0.00 80 1008.5
20260506170455 12 2 8.0 12.9 0.00 0.00 0.00 79 1008.5
20260506165451 12 329 4.8 17.7 0.00 0.00 0.00 80 1008.3